Regional Weather Roundup
Issued by NWS Grand Forks, ND

Home | Current Version | Previous Version | Graphics & Text | Print | Product List | Glossary On
Versions: 1 2 3 4 5 6 7 8 9 10 11 12 13 14 15 16 17 18 19 20 21 22 23 24 25 26 27 28 29 30 31 32 33 34 35 36 37 38 39 40 41 42 43 44 45 46 47 48 49 50
063
ASUS43 KFGF 070810
RWRFGF
PRAIRIE TO PINES  WEATHER ROUNDUP
NATIONAL WEATHER SERVICE EASTERN NORTH DAKOTA/GRAND FORKS ND
200 AM CST WED DEC 07 2016

 **SATELLITE DATA USED TO AUGMENT SKY COVER AT AUTOMATED STATIONS**
 *****  WEATHER ACROSS EASTERN NORTH DAKOTA  *****

CITY           SKY/WX    TMP DP  RH WIND       PRES   REMARKS
GRAND FORKS    LGT SNOW  16  12  84 W32G40    29.78R VSB 3/4 WCI  -5
GRAND FRKS AFB LGT SNOW  14   9  80 NW28G36   29.79R WCI  -6
GRAND FRKS NWS   N/A     16 N/A N/A NW33        N/A  WCI  -5
DEVILS LAKE    LGT SNOW   8   4  83 NW33G40   29.85R FOG     WCI -16
FARGO          LGT SNOW  14   8  77 W25G36    29.86R WCI  -5
WAHPETON ARPT  CLOUDY    12   7  79 W24G31    29.91R WCI  -8
$$

 ***** WEATHER ACROSS CENTRAL AND WESTERN NORTH DAKOTA  *****

CITY           SKY/WX    TMP DP  RH WIND       PRES   REMARKS
BISMARCK       CLOUDY     4  -1  80 W21G26    30.10R WCI -17
MINOT          LGT SNOW   7   3  84 W33G44    30.02R VSB 3/4 WCI -17
JAMESTOWN      MOCLDY     8   4  83 NW30G38   29.92R BLWGSNOWWCI -15
MINOT AFB      SNOW       6   2  84 NW36G41   30.01R VSB 1/2 WCI -19
GARRISON         N/A      4   0  83 NW29G40   30.04S WCI -20
WILLISTON      CLOUDY     4  -3  73 NW14      30.21R WCI -14
DICKINSON      CLOUDY    -1  -7  75 NW23G31   30.11R WCI -25
HETTINGER      MOCLDY    -1  -8  72 NW28G36   30.13R WCI -26
$$

 *****  OTHER AIRPORT OBSERVATIONS IN OUR AREA  *****

CITY           SKY/WX    TMP DP  RH WIND       PRES   REMARKS
WALHALLA       LGT SNOW  14  14 100 NW21G31   29.77R WCI  -4
GRAFTON AIRPOR FAIR      18  12  79 NW28G35   29.77R WCI  -1
VALLEY CITY AR LGT SNOW   7   7 100 NW35G45   29.91R WCI -18
CANDO          CLOUDY    10   7  85 NW28G36   29.89R WCI -11
CAVALIER APRT    N/A     18  12  79 NW23G37   29.75R HAZE    WCI   0
GWINNER        CLOUDY    14   9  79 W18G32    29.93R WCI  -3
SHEYENNE NWR     N/A     11   3  71 NW21      29.95  WCI  -8
ROLLA          LGT SNOW   9   9 100 NW31G39   29.85R WCI -14
 ***** THE ABOVE OBSERVATIONS ARE NON NWS ARE NOT QUALITY
       CONTROLLED AND MAY MIS-REPORT RAIN FOR SNOW...
$$

  *****  WEATHER ACROSS NORTHERN MINNESOTA  *****

CITY           SKY/WX    TMP DP  RH WIND       PRES   REMARKS
FLAG ISLAND    CLOUDY    25  21  86 NW17      29.49R WCI  11
WARROAD        LGT SNOW  25  21  86 W7        29.54R WCI  17
ROSEAU         LGT SNOW  23  18  80 W17G26    29.56R WCI   9
HALLOCK        LGT SNOW  19  16  86 NW30G36   29.68R WCI   0
THF RVR FALLS  LGT SNOW  16  13  88 W25G32    29.69R FOG     WCI  -3
BAUDETTE       LGT SNOW  24  21  88 W13       29.50R FOG     WCI  12
WASKISH        LGT SNOW  23  21  93 W22G30    29.56R WCI   8
CROOKSTON      SNOW      16  14  93 NW36      29.75R VSB 1/2 WCI  -6
$$
  *****  WEATHER ACROSS CENTRAL AND WEST MINNESOTA  *****

CITY           SKY/WX    TMP DP  RH WIND       PRES   REMARKS
FOSSTON        LGT SNOW  14  12  92 W26G32    29.71R WCI  -6
BEMIDJI        LGT SNOW  16  13  89 W25       29.64R WCI  -3
PARK RAPIDS    LGT SNOW  14   8  77 W20       29.71R VSB 1   WCI  -3
ELBOW LAKE     LGT SNOW  11   8  87 NW22G31   29.89R WCI  -8
WADENA         LGT SNOW  12   9  85 W16G24    29.77R WCI  -4
DETROIT LAKES  LGT SNOW  14  12  92 W17G30    29.78R WCI  -3
MOORHEAD       MIX PCPN  12   9  85 W26G32    29.86R WCI  -8
FERGUS FALLS   LGT SNOW  12   9  85 W23G30    29.92R WCI  -7
MORRIS MN      CLOUDY    12   7  79 W23G31    29.90R WCI  -7
STAPLES        LGT SNOW  12   9  85 W21G28    29.77R WCI  -6
$$
  *****  WEATHER ELSEWHERE ACROSS MINNESOTA  *****

CITY           SKY/WX    TMP DP  RH WIND       PRES   REMARKS
DULUTH         FLURRIES  18  13  80 W22G30    29.59R WCI   1
INTRNTL FALLS  SNOW      21  18  88 SW3       29.50R VSB 1/2
ELY            LGT SNOW  19  19 100 W7        29.50R WCI  10
CLOQUET        FLURRIES  19  10  68 SW17G24   29.62R WCI   4
WHEATON        FLURRIES  16  10  79 W21G29    29.94S WCI  -2
BRAINERD       LGT SNOW  15  10  80 W17       29.74R WCI  -1
HIBBING        FLURRIES  19  15  84 W10G20    29.56R WCI   7
ALEXANDRIA     LGT SNOW  12   8  84 W21G30    29.84R FOG     WCI  -7
SAINT CLOUD    CLOUDY    15   9  76 W17G30    29.84R WCI  -1
MINNEAPOLIS    FLURRIES  18  10  71 W16       29.88R WCI   3
$$

  *****  WEATHER ACROSS SOUTH DAKOTA  *****

CITY           SKY/WX    TMP DP  RH WIND       PRES   REMARKS
SIOUX FALLS    CLEAR     11   4  73 W24G32    30.08R WCI  -9
BROOKINGS      CLEAR      7   1  76 W22G32    29.99R WCI -14
WATERTOWN      CLOUDY     7   2  80 W15G26    29.97R WCI -10
HURON          CLEAR      7   1  76 W20G25    30.12R WCI -13
SISSETON         N/A     13   5  70 NW26G37   29.92R WCI  -7
ABERDEEN       CLOUDY    11   1  64 W18G28    30.04R WCI  -7
MITCHELL       CLEAR     10   2  69 W18       30.16R WCI  -8
PIERRE         CLEAR      8   1  73 NW24G32   30.15R WCI -13
MOBRIDGE       PTCLDY     8  -2  63 NW30G43   30.06R WCI -15
RAPID CITY     CLOUDY     3  -4  72 NW12      30.14R WCI -13
$$

  *****  SOME WEATHER IN NEARBY STATES *****

CITY           SKY/WX    TMP DP  RH WIND       PRES   REMARKS
GLASGOW MT     CLOUDY     3  -4  72 NW26G32   30.29R WCI -21
GREAT FALLS MT CLOUDY    -3  -9  75 W7        30.33R WCI -16
CHEYENNE WY    LGT SNOW   7   2  80 N10       29.89R WCI  -8
SCOTTSBLUFF NE CLOUDY    13  -1  54 N13       30.07R WCI  -2
OMAHA NE       CLOUDY    21   9  59 NW13      30.19R WCI   9
DES MOINES IA  CLOUDY    22  11  62 W17G24    30.14R WCI   8
DAVENPORT IA   CLOUDY    25  18  74 W15       30.06R WCI  13
CHICAGO IL     PTCLDY    26  18  71 W15       30.00R WCI  14
EAU CLAIRE WI  FLURRIES  18  11  74 W17G28    29.84R WCI   3
LA CROSSE WI   CLOUDY    22  12  65 W13       29.96R WCI  10
$$

  *****  SOME NATIONAL WEATHER *****

CITY           SKY/WX    TMP DP  RH WIND       PRES   REMARKS
LA GUARDIA NY  LGT RAIN  43  40  89 NE12      29.86R FOG
RALEIGH NC     PTCLDY    43  41  93 CALM      29.93R
ATLANTA GA     MOCLDY    50  46  86 NW9       29.98R
NEW ORLEANS LA CLOUDY    56  55  97 N6        30.04R
OKLAHOMA CITY  PTCLDY    32  22  66 NE6       30.09S
ALBUQUERQUE NM CLEAR     40  19  43 VRB3      29.88S
SALT LAKE CITY MOCLDY    25  17  72 NW12      30.01R WCI  14
LOS ANGELES CA MOCLDY    54  51  90 NE3       30.02S
BOISE ID       CLEAR     14  11  87 CALM      30.17R
SEATTLE WA     MOCLDY    33  28  81 VRB3      30.36R
$$

*** WEATHER ACROSS MANITOBA...SASKATCHEWAN AND ONTARIO ***
                ***ONTARIO***

CITY           SKY/WX    TMP DP  RH WIND       PRES   REMARKS
GERALDTON      FLURRIES  27  23  86 SW6       29.46R WCI  20
THUNDER BAY    PTCLDY    23  18  80 W7        29.51R WCI  15
SIOUX LOOKOUT  FLURRIES  21  18  86 W6        29.45R WCI  14
TORONTO        CLOUDY    37  36  93 SW8       29.76R
BIG TROUT LK   LGT SNOW  18  16  93 NE8G20    29.72S WCI   7
PICKLE LAKE    NOT AVBL
DRYDEN         LGT SNOW  21  19  93 SW5       29.46R WCI  15
KENORA         FLURRIES  23  21  93 NW12      29.47R WCI  12
$$
                *** MANITOBA***

CITY           SKY/WX    TMP DP  RH WIND       PRES   REMARKS
BRANDON        LGT SNOW  12   7  79 NW29G41   29.88R BLWGSNOWWCI  -9
DAUPHIN        LGT SNOW  16  12  86 NW15G21   29.93R VSB 1   WCI   1
ISLAND LAKE    NOT AVBL
PILOT MOUND      N/A     10   7  85 NW26G36     N/A  WCI -11
THE PAS        CLOUDY    18  14  86 N17       30.08R WCI   2
THOMPSON       NOT AVBL
WINNIPEG       LGT SNOW  23  19  86 NW31G37   29.65R VSB 1   WCI   5
LYNN LAKE      LGT SNOW   3   1  92 N8        30.21R WCI -10
CHURCHILL      LGT SNOW  25  25 100 NE24G32   30.10R DRFTSNOWWCI   9
GILLAM         CLOUDY    14  12  92 N7        30.01R WCI   4
$$
                ***SASKATCHEWAN***

CITY           SKY/WX    TMP DP  RH WIND       PRES   REMARKS
ESTEVAN        LGT SNOW   3  -2  78 NW29G37   30.14R BLWGSNOWWCI -21
KINDERSLEY     MOCLDY    -4  -9  77 NW13      30.35R WCI -23
LLOYDMINSTER   FLURRIES  -4  -9  77 NW15G26   30.37R WCI -25
PRINCE ALBERT  FLURRIES   5  -2  72 NW13G20   30.26R WCI -12
REGINA         CLOUDY     1  -4  78 NW21      30.21R WCI -20
YORKTON        CLOUDY     7   1  78 NW25G32   30.06R WCI -15
N. BATTLEFORD  FLURRIES  -2  -8  78 NW15G21   30.36R WCI -22
LA RONGE       FLURRIES   5   1  85 NW12      30.27R WCI -11
SASKATOON      PTCLDY     0  -6  78 NW16G23   30.31R WCI -21
SWIFT CURRENT  FLURRIES  -8 -11  84 NW20      30.26R WCI -32
$$
NOTE: THESE ARE AUTOMATED STATIONS WITH LIMITED QUALITY CONTROL
      "FAIR" INDICATES FEW OR NO CLOUDS BELOW 12,000 FEET WITH NO
      SIGNIFICANT WEATHER AND/OR OBSTRUCTIONS TO VISIBILITY.
      SKY/WX - SKY CONDITION AND SIGNIFICANT WEATHER.
      TMP - AIR TEMPERATURE.    DP   - DEWPOINT TEMPERATURE.
      RH  - RELATIVE HUMIDITY.  PRES - PRESSURE.
      HX  - HEAT INDEX.         WCI  - WIND CHILL INDEX.
$




USA.gov is the U.S. government's official web portal to all federal, state and local government web resources and services.